Overview Statistics Trail Chart Weather Telemetry Raw packets
 

This is the latest recevied weather packets stored in our database for station/object EA3AGY-13. If no packets are shown the sender has not sent any weather packets the latest 10 day(s).

<< 1 2 3 4 >>
Time Temp. Humidity Pressure Rain* Wind** Luminosity Snow
1788572456 16.11° C 24% 1024.7 hPa 0 mm - - -
1788571221 15.56° C 23% 1024.9 hPa 0 mm - - -
1788570635 16.11° C 23% 1024.8 hPa 0 mm - - -
1788568810 16.11° C 23% 1024.9 hPa 0 mm - - -
1788568208 16.11° C 23% 1025.1 hPa 0 mm - - -
1788567003 15.56° C 24% 1025.1 hPa 0 mm - - -
1788565800 15.56° C 23% 1025.2 hPa 0 mm - - -
1788562787 15.56° C 25% 1025.2 hPa 0 mm - - -
1788561582 16.11° C 22% 1025.1 hPa 0 mm - - -
1788560982 15.56° C 23% 1025.2 hPa 0 mm - - -
1788559172 16.67° C 25% 1025.1 hPa 0 mm - - -
1788558573 16.11° C 25% 1025.2 hPa 0 mm - - -
1788556763 17.22° C 30% 1025.3 hPa 0 mm - - -
1788556164 17.22° C 31% 1025.3 hPa 0 mm - - -
1788555558 17.22° C 26% 1025.5 hPa 0 mm - - -
1788554957 17.22° C 27% 1025.5 hPa 0 mm - - -
1788553753 17.22° C 30% 1025.4 hPa 0 mm - - -
1788553149 17.78° C 23% 1025.4 hPa 0 mm - - -
1788551341 18.33° C 17% 1025.2 hPa 0 mm - - -
1788548330 18.89° C 10% 1024.7 hPa 0 mm - - -
1788547727 19.44° C 9% 1024.5 hPa 0 mm - - -
1788546522 20.56° C 4% 1024.4 hPa 0 mm - - -
1788545921 21.67° C 100% 1024.4 hPa 0 mm - - -
1788544113 22.22° C 1% 1023.9 hPa 0 mm - - -
1788542940 23.33° C 100% 1023.9 hPa 0 mm - - -

* Rain since midnight (hover to see other rain measurements)
** Current wind speed in m/s (hover to see current wind gust speed)